Flag for Hungary Weather past 2 weeks in Győr, Hungary

Now
40 °F

Chilly.


Feels Like: 40 °F
Forecast: 43 / 60 °F
Wind: 1 mph from West

Location: Gyor

Current Time: Apr 20, 2015 at 3:35:46 AM

Latest Report: Apr 20, 2015 at 2:00 AM


Visibility: N/A

Pressure: 30.16 "Hg

Humidity: 70%

Dew point: 31 °F

Location of GyőrLocation

Historic Weather in Győr — Graph

°F

Győr temperature yesterday

Maximum temperature yesterday: 55 °F (at 5:00 PM)
Minimum temperature yesterday: 31 °F (at 7:00 AM)
Average temperature yesterday: 44 °F

Past Weeks' High & Low Weather Summary

 TemperatureHumidityPressure
High82 °F (Apr 16, 3:00 PM)95% (Apr 17, 9:00 PM)30.45 "Hg (Apr 17, 9:00 PM)
Low31 °F (Apr 19, 7:00 AM)16% (Apr 16, 3:00 PM)29.77 "Hg (Apr 17, 6:00 PM)
Average52 °F54%30.19 "Hg
* Reported Apr 5 2:00 AM — Apr 20 2:00 AM, Győr, Weather by CustomWeather, © 2015

Note: Actual official high and low records may vary slightly from our data, if they occured in-between our weather recording intervals... More about our weather records

Advertising

Győr weather history for previous 24 hours

 ConditionsComfort  
Time TempWeatherWind HumidityBarometerVisibility
2:00 AM
Mon, Apr 20
40 °FChilly.1 mph70%30.16 "HgN/A
1:00 AM42 °FQuite cool.1 mph67%30.16 "HgN/A
12:00 AM40 °FChilly.No wind72%30.16 "HgN/A
10:00 PM
Sun, Apr 19
44 °FQuite cool.No wind64%30.15 "HgN/A
9:00 PM43 °FQuite cool.No wind63%30.15 "HgN/A
8:00 PM50 °FCool.No wind45%30.14 "HgN/A
7:00 PM53 °FCool.No wind37%30.12 "HgN/A
6:00 PM54 °FCool.2 mph34%30.13 "HgN/A
5:00 PM55 °FRefreshingly cool.2 mph36%30.13 "HgN/A
4:00 PM55 °FCool.2 mph37%30.14 "HgN/A
3:00 PM53 °FCool.2 mph39%30.16 "HgN/A
2:00 PM52 °FCool.3 mph40%30.18 "HgN/A
1:00 PM52 °FCool.1 mph33%30.19 "HgN/A
12:00 PM50 °FCool.2 mph41%30.21 "HgN/A
11:00 AM50 °FCool.2 mph48%30.22 "HgN/A
10:00 AM47 °FCool.2 mph54%30.22 "HgN/A
9:00 AM44 °FQuite cool.1 mph63%30.22 "HgN/A
8:00 AM38 °FChilly.1 mph72%30.22 "HgN/A
7:00 AM31 °FChilly.No wind92%30.21 "HgN/A
6:00 AM31 °FChilly.No wind88%30.21 "HgN/A
5:00 AM33 °FChilly.1 mph86%30.21 "HgN/A
4:00 AM32 °FChilly.No wind84%30.22 "HgN/A
3:00 AM34 °FChilly.No wind81%30.22 "HgN/A
Weather by CustomWeather, © 2015

See weather overviewHow to use our weather pages